Regional Weather Roundup
Issued by NWS

Home | Current Version | Previous Version | Text Only | Print | Product List | Glossary On
Versions: 1 2 3 4 5 6 7 8 9 10 11 12 13 14 15 16 17 18 19 20 21 22 23 24 25 26 27 28 29 30 31 32 33 34 35 36 37 38 39 40 41 42 43 44 45 46 47 48 49 50
000
ASUS43 KMKX 161500
RWRWI

WISCONSIN REGIONAL WEATHER ROUNDUP
NATIONAL WEATHER SERVICE MILWAUKEE/SULLIVAN WI
1000 AM CDT TUE SEP 16 2014

NOTE: "FAIR" INDICATES FEW OR NO CLOUDS BELOW 12,000 FEET WITH NO
SIGNIFICANT WEATHER AND/OR OBSTRUCTIONS TO VISIBILITY.

WIZ001-002-006>008-014>016-023>028-161600-
NORTHWEST WISCONSIN

CITY           SKY/WX    TMP DP  RH WIND       PRES   REMARKS
SUPERIOR ARPT  SUNNY     53  42  66 W12G17    30.08F
ASHLAND        SUNNY     57  40  52 SW13G23   30.09S
HAYWARD        SUNNY     53  38  56 SW10      30.14S
SIREN          SUNNY     54  39  57 W10       30.14S
RICE LAKE      SUNNY     50  43  76 CALM      30.18S
LADYSMITH      SUNNY     52  43  72 W6        30.17S
EAU CLAIRE     NOT AVBL
MENOMONIE      SUNNY     53  44  71 SW5       30.18F
NEW RICHMOND   SUNNY     53  43  69 SW6       30.17F
OSCEOLA        SUNNY     53  47  80 SW5       30.19F
$$

WIZ003>005-009-010-017-018-161600-
NORTH CENTRAL WISCONSIN

CITY           SKY/WX    TMP DP  RH WIND       PRES   REMARKS
WOODRUFF       SUNNY     52  38  59 W9G17     30.11F
RHINELANDER    SUNNY     53  39  59 W12       30.14F
EAGLE RIVER    SUNNY     51  37  58 SW12      30.11F
LAND O LAKES   MOSUNNY   52  37  56 W6        30.11S
PHILLIPS       PTSUNNY   49  40  69 SW8       30.14S
TOMAHAWK       SUNNY     52  41  66 W5        30.15F
MEDFORD        SUNNY     50  41  71 W7        30.17S
MERRILL        PTSUNNY   51  41  69 W7        30.16S
$$

WIZ029-030-035-036-043>047-161600-
CENTRAL WISCONSIN

CITY           SKY/WX    TMP DP  RH WIND       PRES   REMARKS
WAUSAU         SUNNY     54  40  59 W8        30.16S
MOSINEE        NOT AVBL
MARSHFIELD     SUNNY     55  43  63 W8        30.17F
STEVENS POINT  SUNNY     51  39  63 W6        30.19S
WAUPACA        SUNNY     56  43  63 W3        30.19S
WAUTOMA        NOT AVBL
WISC RAPIDS    SUNNY     55  43  63 NW6       30.20F
CAMP DOUGLAS   NOT AVBL
$$

WIZ011>013-019>022-031-037>040-048>050-161600-
NORTHEAST WISCONSIN

CITY           SKY/WX    TMP DP  RH WIND       PRES   REMARKS
ANTIGO         SUNNY     50  40  68 W8        30.16F
STURGEON BAY   SUNNY     54  41  62 W8        30.16S
GREEN BAY      SUNNY     54  43  66 W8        30.17F
MANITOWOC      NOT AVBL
APPLETON       NOT AVBL
CLINTONVILLE   SUNNY     52  41  66 W6        30.18S
OSHKOSH        SUNNY     54  44  69 W7        30.19S
$$

WIZ032>034-041-042-053>061-161600-
SOUTHWEST WISCONSIN

CITY           SKY/WX    TMP DP  RH WIND       PRES   REMARKS
LA CROSSE      SUNNY     52  45  77 S6        30.21S
SPARTA         MOSUNNY   44  44 100 CALM      30.22S
VIROQUA        FAIR      53  44  73 W5        30.21S
BOSCOBEL       SUNNY     50  46  86 W3        30.23F
PRAIRIE DU CHI CLOUDY    47  46  96 CALM      30.23F FOG
PLATTEVILLE    FAIR      50  49  97 CALM      30.24S
$$

WIZ056-057-062-063-064-067-068-161600-
SOUTH CENTRAL WISCONSIN

CITY           SKY/WX    TMP DP  RH WIND       PRES   REMARKS
BARABOO/DELLS  SUNNY     52  41  66 CALM      30.21S
LONE ROCK      CLOUDY    50  46  86 SW3       30.24S FOG
WATERTOWN      SUNNY     51  46  84 CALM      30.22R
MADISON        SUNNY     57  43  59 VRB5      30.22S
MIDDLETON      FAIR      55  43  64 W3        30.22S
MONROE         SUNNY     54  39  58 W3        30.22S
JANESVILLE     SUNNY     55  45  67 CALM      30.22R
$$

WIZ051-052-058>065-066-070>072-161600-
SOUTHEAST WISCONSIN

CITY           SKY/WX    TMP DP  RH WIND       PRES   REMARKS
MILWAUKEE      SUNNY     58  39  49 NW7       30.21S
WAUKESHA       SUNNY     54  41  62 W5        30.22R
MILWAUKEE/TIMM SUNNY     55  41  58 W6        30.22R
RACINE         SUNNY     57  42  57 NW6       30.22S
BURLINGTON     SUNNY     52  45  76 CALM      30.21S
KENOSHA        SUNNY     57  45  64 VRB3      30.22R
FOND DU LAC    SUNNY     55  44  66 VRB6      30.20S
SHEBOYGAN      SUNNY     56  42  59 W8        30.19S
WEST BEND      SUNNY     54  39  58 W7        30.21R
JUNEAU         SUNNY     51  45  79 W3        30.22S
$$

LSZ147-162-161600-
LAKE SUPERIOR

STATION/POSITION TIME  TEMP    WIND        PRES    WAVE
                       AIR SEA DIR/SP/G            HT/PER
                 (UTC) (F)     (DEG/KT/KT) (MB)    (FT/S)
W MID LAKE BUOY  1350   50 47  240/ 16/ 17 1016.4F   4/ 5
DEVILS ISLAND    1400   51     240/ 23/ 26 1017.5F
PORT WING        1400   54     230/ 13/ 18 1018.6
SAXON HARBOR     1440   56     230/ 10/ 21 1018.6F
$$

LMZ867-665-643>646-161600-
LAKE MICHIGAN

STATION/POSITION TIME  TEMP    WIND        PRES    WAVE
                       AIR SEA DIR/SP/G            HT/PER
                 (UTC) (F)     (DEG/KT/KT) (MB)    (FT/S)
N MID LAKE BUOY  1350   53 59  250/ 10/ 12 1020.4F   1/ 3
NORTHPORT PIER   1400   54     270/  7/ 10 1020.3F
KEWAUNEE LAKESHO 1412                      1020.5
SHEBOYGAN LAKESH 1400   52 50  270/  8/  9 1022.7R
PORT WASHINGTON  1400   55     290/  5/  7 1023.0S
ATWATER BUOY     1430   55     300/  8/  8 1023.8R
MILWAUKEE LAKESH 1400   53     280/  4/  5   N/A
S MID LAKE BUOY  1350   58 64  330/ 10/ 12 1022.5R   2/ 4
KENOSHA   LAKESH 1400   53     300/  3/  5 1022.7S
$$

TC  - TEMPERATURE IN CELSIUS
VSB - VISIBILITY IN STATUTE MILES
WCI - WIND CHILL INDEX
HX  - HEAT INDEX



USA.gov is the U.S. government's official web portal to all federal, state and local government web resources and services.